Location: Barcelona
(41.3830°N, 2.1830°E)
Time: 21:34:27
(UTC+01:00)

ISS - Pass Details

Date: 21 March 2017
Orbit: 402 x 407 km, 51.6° (Epoch: 24 November)

Event Time Altitude Azimuth Distance (km) Brightness Sun altitude
Exits shadow 04:38:45 31° 37° (NE) 783 -1.9 -25.2°
Drops below altitude 10° 04:41:31 10° 90° (E) 1,517 -0.1 -24.8°
Sets 04:43:46 0° 101° (E) 2,380 0.9 -24.4°
